Flag for U.S.A. Weather past 2 weeks in French Lick, Indiana, U.S.A.

61 °F


Feels Like: 61 °F
Forecast: 52 / 65 °F
Wind: 18 mph from South

Location: Huntingburg Airport

Current Time: Nov 26, 2015 at 1:46:24 PM

Latest Report: Nov 26, 2015 at 1:15 PM

Visibility: 10 mi

Pressure: 30.44 "Hg

Humidity: 55%

Dew point: 45 °F

Location of French LickLocation

Historic Weather in French Lick — Graph


French Lick temperature yesterday

Maximum temperature yesterday: 59 °F (at 2:55 PM)
Minimum temperature yesterday: 43 °F (at 6:15 AM)
Average temperature yesterday: 51 °F

Past Weeks' High & Low Weather Summary

High66 °F (Nov 11, 1:35 PM)93% (Nov 16, 7:35 PM)30.51 "Hg (Nov 16, 7:35 PM)
Low23 °F (Nov 22, 11:55 PM)26% (Nov 20, 1:35 PM)29.58 "Hg (Nov 12, 1:35 AM)
Average47 °F61%30.16 "Hg
* Reported Nov 11 12:15 PM — Nov 26 12:35 PM, French Lick, Weather by CustomWeather, © 2015

Note: Actual official high and low records may vary slightly from our data, if they occured in-between our weather recording intervals... More about our weather records


French Lick weather history for previous 24 hours

Time TempWeatherWind HumidityBarometerVisibility
12:35 PM
Thu, Nov 26
59 °FMostly cloudy.18 mph55%30.46 "Hg10 mi
11:55 AM57 °FMostly cloudy.16 mph59%30.49 "Hg10 mi
11:35 AM57 °FOvercast.14 mph59%30.49 "Hg10 mi
11:15 AM57 °FMore clouds than sun.16 mph59%30.49 "Hg10 mi
10:55 AM55 °FMore clouds than sun.10 mph55%30.50 "Hg10 mi
10:35 AM55 °FOvercast.9 mph55%30.50 "Hg10 mi
10:15 AM54 °FOvercast.9 mph58%30.51 "Hg10 mi
9:55 AM54 °FOvercast.10 mph58%30.51 "Hg10 mi
9:35 AM54 °FMostly cloudy.10 mph58%30.50 "Hg10 mi
9:15 AM54 °FOvercast.12 mph58%30.50 "Hg10 mi
8:55 AM54 °FCloudy.13 mph58%30.49 "Hg10 mi
8:35 AM54 °FMostly cloudy.13 mph58%30.49 "Hg10 mi
8:15 AM54 °FOvercast.12 mph58%30.48 "Hg10 mi
7:55 AM54 °FOvercast.10 mph58%30.48 "Hg10 mi
7:35 AM54 °FMostly cloudy.13 mph58%30.47 "Hg10 mi
6:55 AM54 °FMostly cloudy.16 mph58%30.46 "Hg10 mi
6:35 AM54 °FOvercast.15 mph58%30.46 "Hg10 mi
6:15 AM54 °FOvercast.14 mph58%30.45 "Hg10 mi
5:55 AM54 °FMostly cloudy.12 mph58%30.45 "Hg10 mi
5:35 AM54 °FMostly cloudy.12 mph58%30.44 "Hg10 mi
5:15 AM54 °FMostly cloudy.13 mph58%30.44 "Hg10 mi
4:55 AM54 °FMostly cloudy.13 mph58%30.44 "Hg10 mi
4:35 AM54 °FMostly cloudy.14 mph58%30.43 "Hg10 mi
4:15 AM54 °FOvercast.14 mph58%30.43 "Hg10 mi
3:55 AM54 °FMostly cloudy.13 mph58%30.43 "Hg10 mi
3:35 AM54 °FPassing clouds.12 mph63%30.43 "Hg10 mi
2:55 AM54 °FOvercast.10 mph63%30.42 "Hg10 mi
2:35 AM54 °FPassing clouds.12 mph63%30.42 "Hg10 mi
2:15 AM54 °FOvercast.10 mph63%30.42 "Hg10 mi
1:35 AM54 °FOvercast.9 mph63%30.41 "Hg10 mi
1:15 AM54 °FPassing clouds.12 mph58%30.41 "Hg10 mi
12:55 AM54 °FPassing clouds.9 mph58%30.41 "Hg10 mi
12:35 AM54 °FPassing clouds.9 mph58%30.41 "Hg10 mi
11:55 PM
Wed, Nov 25
54 °FOvercast.7 mph58%30.40 "Hg10 mi
11:35 PM55 °FOvercast.7 mph55%30.39 "Hg10 mi
10:55 PM55 °FOvercast.7 mph55%30.38 "Hg10 mi
10:15 PM55 °FOvercast.8 mph55%30.37 "Hg10 mi
9:55 PM55 °FOvercast.8 mph55%30.37 "Hg10 mi
9:35 PM55 °FOvercast.8 mph55%30.36 "Hg10 mi
9:15 PM55 °FOvercast.10 mph55%30.36 "Hg10 mi
8:55 PM55 °FOvercast.9 mph55%30.36 "Hg10 mi
8:35 PM55 °FOvercast.8 mph51%30.35 "Hg10 mi
8:15 PM54 °FPassing clouds.9 mph54%30.35 "Hg10 mi
7:35 PM52 °FOvercast.12 mph54%30.34 "Hg10 mi
7:15 PM52 °FOvercast.12 mph54%30.34 "Hg10 mi
6:55 PM52 °FOvercast.6 mph54%30.35 "Hg10 mi
6:35 PM52 °FPassing clouds.7 mph54%30.34 "Hg10 mi
5:55 PM54 °FPassing clouds.5 mph51%30.34 "Hg10 mi
5:35 PM55 °FClear.5 mph47%30.33 "Hg10 mi
5:15 PM55 °FPassing clouds.7 mph51%30.33 "Hg10 mi
4:55 PM55 °FPassing clouds.8 mph51%30.33 "Hg10 mi
4:35 PM57 °FSunny.8 mph48%30.32 "Hg10 mi
3:55 PM59 °FPassing clouds.15 mph45%30.32 "Hg10 mi
3:35 PM59 °FSunny.16 mph45%30.32 "Hg10 mi
3:15 PM59 °FSunny.14 mph45%30.32 "Hg10 mi
2:55 PM59 °FSunny.12 mph45%30.32 "Hg10 mi
2:35 PM57 °FSunny.9 mph44%30.32 "Hg10 mi
2:15 PM57 °FSunny.17 mph48%30.33 "Hg10 mi
1:55 PM57 °FSunny.15 mph44%30.35 "Hg10 mi
1:35 PM57 °FSunny.16 mph44%30.36 "Hg10 mi
1:15 PM57 °FSunny.13 mph44%30.36 "Hg10 mi
Weather by CustomWeather, © 2015

See weather overviewHow to use our weather pages